Voltar ao catálogo

STARLINK-35554

AtivoComunicaçõesVLEO
NORAD 66239·PAYLOAD·🇺🇸 United States

Lançado Oct 29, 2025 de Cape Canaveral Space Force Station

Loading…

Próximas Passagens (próximas 24 horas)

TLE

AtualizadoSource: CelesTrak SupGP

Época: Sep 14, 2026, 14:22 UTC

1 66239C 25245F   26257.59909722  .00050432  00000+0  16192-2 0  2570
2 66239  53.1562 125.4123 0001446  89.8074 276.0497 15.31726761    14

Acompanhe STARLINK-35554 em tempo real com AllMySat

Download on the App Store